Погода в Бресте

Поиск расширенной информации на нашем сайте:

Полезная информация:

Новости сайта



02.01.2020
Опубликован Долгосрочный прогноз погоды по городам России и ближнего зарубежья на январь 2020 года.
Карты: Прогноз на январь и февраль 2020 года, Сравнение прогнозируемой аномалии приземной температуры воздуха на январь 2020 года по разным моделям.




Погода в Бресте - сегодня

Время (UTC), дата Ветер
(°,м/с) 
Видим.   Явления Облачность Т
(°С)
Тd
(°С)
f(%) Тe
(°С)
Pmin
(гПа)
dP
(гПа)
Po
(мм)
O2
(г/м3)
Тmin Tmax R s Состояние
почвы
15 27.03.20 090 (В) 30000 м    ясно 
+14.5 -5.3 25 +14  1025.6  -2.1  756  290           
18 27.03.20 090 (В) 20000 м    ясно 
+10.1 -6.3 31 +10  1025.3  -0.6  756  294    +15.3       
21 27.03.20 070 (В) 20000 м    ясно 
+7.6 -6.5 36 +8  1024.7  -0.8  755  297           
00 28.03.20 080 (В) 20000 м    ясно 
+4.7 -6.8 43 +6  1023.4  -1.4  754  299           
03 28.03.20 тихо ()   20000 м    ясно 
+2.6 -6.5 51 +3  1022.1  -1.4  753  301           
06 28.03.20 тихо ()   10 км    8/0 средняя 
[Ac trans]
+2.5 -5.4 56 +3  1021.6  -0.5  753  301  +1.6         
09 28.03.20 110 (В) 12000 м    6/0 верхняя 
[Ci fib]
+14 -4.7 27 +15  1019.4  -1.4  752  289           
12 28.03.20 060 (СВ) 20000 м    4/0 средняя 
[Ac trans]
+16.3 -6.1 21 +17  1017  -2.2  750  286           
15 28.03.20 070 (В) 30000 м    4/0 верхняя 
[Ci fib]
+16.9 -6.2 20 +18  1014.5  -2.5  748  284           
18 28.03.20 тихо ()   3700 м  дым  8/0 верхняя 
[Cs]
+9.8 -6.1 32 +10  1014  -0.9  747  291    +17.1       
21 28.03.20 тихо ()   12000 м    ясно 
+6.8 -4 46 +7  1013.4  -0.8  747  294           
00 29.03.20 тихо ()   15000 м    ясно 
+3.2 -3.6 61 +3  1012.2  -1.4  746  297           
03 29.03.20 тихо ()   10 км    ясно 
+1.1 -3.8 70 +1  1011.2  -1.2  745  299           
06 29.03.20 тихо ()   15000 м    8/0 средняя 
[Ac trans]
+3.5 -2.7 64 +4  1010.5  -0.5  744  296  +0.6         
09 29.03.20 030 (СВ) 20000 м    4/0 средняя 
[Ac trans]
+14.7 -3.2 29 +16  1009.3  -0.4  744  285           
12 29.03.20 350 (С) 20000 м    8/0 средняя 
[Ac trans]
+16.7 -4.6 23 +17  1008.5  -0.7  744  283           
15 29.03.20 340 (С) 20000 м    8/0 средняя, верхняя 
[Ac trans|Ci fib]
+14.9 -2.1 31 +15  1008.3  -0.3  743  284           
18 29.03.20 350 (С) 4{11}  30000 м    1/0 средняя 
[Ac trans]
+7.9 +0.1 58 +7  1011.5  2.7  745  292    +16.8       
21 29.03.20 340 (С) 4-11{11}  30000 м    9/9 700 м 
[Sc]
+3.1 -1.5 72 +1  1014.7  2.8  747  298           
00 30.03.20 360 (С) 5-11{11}  8000 м  слаб. ливневой снег  10/10 600 м кучево-дожд. 
[Cb cap]
-0.3 -2 88 -3  1016.2  1.3  748  302           
03 30.03.20 350 (С) 3{11}  10 км  слаб. ливневой снег  10/10 600 м кучево-дожд. 
[Cb cap]
-1.3 -3.2 87 -3  1017.7  1.4  749  304      0.0   
06 30.03.20 340 (С) 30000 м  {ливн. осадки}  9/9 870 м 
[Sc]
-1.8 -6.2 72 -5  1019.2  1.4  751  305  -1.8    0.0  сухой снег
50-90% 
09 30.03.20 340 (С) 5-10{11}  30000 м    6/4 1000 м верхняя 
[Sc diur, vesp|Cs]
+1.4 -10.4 41 -1  1019.8  0.8  751  302           
12 30.03.20 350 (С) 5-10{12}  30000 м    3/3 1000 м 
[Sc diur, vesp]
+3.4 -13.9 27 +1  1019.8  0.1  751  300           
15 30.03.20 360 (С) 4-10{11}  30000 м    5/5 1000 м 
[Sc]
+2.6 -15 26 +1  1019.9  0.1  751  301           
Время (UTC), дата Ветер
(°,м/с) 
Видим.   Явления Облачность Т
(°С)
Тd
(°С)
f(%) Тe
(°С)
Pmin
(гПа)
dP
(гПа)
Po
(мм)
O2
(г/м3)
Тmin Tmax R s Состояние
почвы

Для получения пояснительной информации подведите курсор к названию столбца.

ПОГОДА в Бресте - архив

Всё, что Вы хотите узнать о погоде в Бресте - удобно и подробно!

Выберите нужную дату (начиная с 1 января 2019* года) и нажмите кнопку "Найти".
Будут отображены архивные сводки погоды по пункту Брест, начиная с указанной даты.


Отображать данные в формате CSV (для использования в таблицах Excel)


Внимание! Наш архив погоды предназначен исключительно для личного некоммерческого использования в познавательных целях. Если Вам необходимы официальные справки о состоянии погоды (для производственных, юридических, коммерческих и т.п. целей), обращайтесь в органы Росгидромета.

*Примечание: данная дата относится к архиву по метеостанциям СССР (Россия, СНГ, Балтия).
Архив по метеостанциям Зарубежной Европы и Азии (кроме Китая) хранится 10 дней, по другим регионам земного шара (Китай, Африка, Америка, Австралия, Океания) - 1 день.

Брест - район местоположения метеостанции


Название, широта, долгота, высота метеостанции:
Брест 52.1°ш. 23.7°д. 146 м над ур. моря [Беларусь]

Дополнительная информация

В oтличие oт бoльшинства пoгoдных сайтoв мы публикуем пoдрoбную метеoинфoрмацию в детальнoм прoфессиoнальнoм фoрмате.

Характеристики температуры и влажнoсти вoздуха измеряются на высoте 2 м в тени вдали oт зданий и деревьев.
Скoрoсть ветра измеряется на высoте 10 м (на урoвне рoста челoвека скoрoсть ветра ниже в 1.5-2 раза). Если метеoстанция нахoдится в гoрoде или в лесу, тo скoрoсть ветра занижена на 2-4 м/с пo сравнению с oткрытым местoм. Скoрoсть ветра над акватoриями крупных рек и oзёр, а также на вершинах хoлмoв на 2-5 м/с выше, чем в oбычных услoвиях.
Атмoсфернoе давление в разных тoчках местнoсти мoжет значительнo oтличаться oт давления на метеoстанции, в зависимoсти oт услoвий рельефа (при пoдъёме на 10 м давление пoнижается примернo на 1 мм рт.ст.).